Location: Fredericksburg
(30.2750°N, 98.8720°W)
Time: 14:20:21
(UTC-05:00)

Daily predictions for brighter satellites

Satellite Brightness Start Highest point End
(mag) Time Altitude Azimuth Time Altitude Azimuth Time Altitude Azimuth
Cosmos 2098 Rocket 4.5 20:56:02 10° N 21:03:34 64° E 21:10:27 10° SSE
Cosmos 2297 Rocket 3.6 21:01:44 10° SW 21:07:05 44° WNW 21:12:29 10° N
Meteor 1-29 4.5 21:06:55 10° NE 21:09:24 18° E 21:11:51 10° SE
Cosmos 1727 Rocket 4.1 21:04:13 10° S 21:10:26 65° E 21:16:43 10° NNE
ATLAS 5 CENTAUR R/B 2.9 21:07:59 10° SW 21:12:23 48° WNW 21:17:05 10° NNE
H-2A R/B 4.3 13:17:53 10° WSW 21:12:59 38° SW 21:18:53 10° SSE
Abrixas 2.3 21:13:54 10° SSW 21:16:31 51° SE 21:19:08 10° ENE
Helios 1B rocket 2.8 21:18:58 10° NNE 21:22:55 43° E 21:26:50 10° S
Okean 3 Rocket 3.8 21:21:38 10° S 21:25:59 53° E 21:30:22 10° NNE
USA 32 4.0 21:24:05 10° S 21:29:18 73° E 21:34:32 10° N
Helios 1A 3.4 21:31:12 12° SE 21:34:46 43° ENE 21:38:41 10° N
Meteor 1-21 Rocket 4.4 21:32:03 10° S 21:37:33 52° E 21:42:58 10° NNE
Cosmos 1356 Rocket 3.6 21:35:04 10° S 21:39:12 56° E 21:43:24 10° NNE
USA 234 3.8 21:34:03 10° ENE 21:39:50 33° SE 21:45:35 10° S
CZ-4B DEB 3.7 21:38:54 19° ESE 21:40:15 28° ENE 21:42:51 10° NNE
Skynet4D Del rocket 4.4 21:36:30 10° W 21:41:42 40° SSW 21:45:58 17° SE
Cosmos 2237 Rocket 3.3 21:37:26 10° NW 21:42:39 41° WSW 21:47:52 10° S
Cosmos 1674 2.6 21:39:01 10° S 21:42:43 62° E 21:46:26 10° NNE
Palapa 6 Rocket 4.4 21:38:14 10° WSW 21:43:33 33° S 21:46:35 18° SE
Delta 2 Rocket 4.2 21:38:08 10° WSW 21:43:39 78° NNW 21:49:28 10° ENE
Cosmos 1242 Rocket 3.4 21:41:10 10° NNE 21:44:32 32° E 21:46:19 21° SE
ERS-1 Rocket 4.1 21:41:51 16° ESE 21:44:48 27° ENE 21:49:01 10° NNE
Sakura Rocket 4.5 21:40:27 10° W 21:49:59 81° S 21:56:13 14° E
SJ-11-01 4.3 21:47:43 13° SSE 21:51:57 78° ENE 21:56:42 10° N
RESURS DK-1 4.0 21:50:07 10° NNE 21:53:10 20° ENE 21:54:38 17° E
Cosmos 220 Rocket 4.2 21:56:29 12° S 22:00:22 48° ESE 22:04:36 10° NNE
Resurs 01 Rocket 3.7 21:57:09 10° SSW 22:00:46 25° W 22:04:23 10° NW
Cosmos 1939 Rocket 3.0 21:58:07 15° S 22:01:20 74° WSW 22:05:24 10° NNW
Cosmos 1908 3.1 22:02:08 10° N 22:05:59 77° E 22:07:55 28° SSE
KORONAS-FOTON 3.6 22:03:48 15° S 22:06:50 87° E 22:10:38 10° N
USA 186 4.2 22:07:24 10° WSW 22:07:58 11° W 22:08:31 10° W
SL-16 R/B 2.5 22:03:46 10° NNW 22:09:22 64° WSW 22:13:40 17° S
Cosmos 1459 Rocket 3.9 22:09:08 10° N 22:15:24 80° E 22:19:38 21° S
GPS 2-05 Rocket1 3.9 22:12:57 10° W 22:15:51 37° N 22:17:46 18° NE
Cosmos 1076 Rocket 4.4 22:12:26 10° SSW 22:16:39 48° W 22:20:52 10° N
H-2A R/B 3.4 22:17:24 21° E 22:18:45 24° ENE 22:22:58 10° NNE
H-2A ROCKET BODY 1.9 22:21:35 10° SW 22:24:24 48° SSE 22:33:12 10° E
SPOT 5 3.6 22:24:13 32° ESE 22:25:21 37° ENE 22:29:58 10° N
Cosmos 2100 Rocket 4.2 22:20:52 10° N 22:27:12 75° W 22:31:56 19° S
Cosmos 2151 4.1 22:27:50 29° ENE 22:27:50 29° ENE 22:31:04 10° NNE
YAOGAN 6 3.5 22:26:34 27° SSW 22:28:10 46° W 22:31:43 10° NNW
Cosmos 1408 Rocket 4.0 22:26:08 15° SSW 22:29:32 57° W 22:33:48 10° N
Lacrosse 5 2.5 22:24:42 10° NNW 22:29:32 44° NE 22:31:05 34° E
Cosmos 2123 Rocket 3.9 22:25:58 23° S 22:29:55 72° E 22:36:06 10° N
Cosmos 1818 4.3 22:26:20 10° NW 22:31:31 47° WSW 22:34:19 25° S
NOAA 11 4.1 22:29:14 35° SSE 22:31:36 78° ENE 22:37:01 10° N
Cosmos 2173 Rocket 4.1 22:27:26 10° N 22:33:37 73° W 22:37:51 22° S
Cosmos 1626 4.2 22:38:03 17° NE 22:38:03 17° NE 22:39:19 10° NE
MetOp-B 4.1 22:34:38 41° SSE 22:36:32 73° ENE 22:41:52 10° N
Atlas Centaur 2 2.5 22:34:22 10° W 22:36:52 25° SW 22:36:52 25° SW
Cosmos 2221 4.3 22:35:18 10° NNW 22:39:03 28° W 22:42:20 12° SW
Cosmos 2061 Rocket 4.3 22:34:23 10° N 22:40:45 70° W 22:44:50 24° S
Cosmos 1726 2.0 22:41:52 10° N 22:45:24 81° NW 22:45:24 81° NW
Cosmos 1354 Rocket 4.1 22:45:33 50° ESE 22:45:45 50° ESE 22:50:48 10° NNE
Terra 3.5 22:50:32 21° ENE 22:50:32 21° ENE 22:53:40 10° NNE
Meteor 1-11 4.2 22:48:57 47° SSE 22:50:36 70° E 22:56:23 10° NNE
Cosmos 1500 Rocket 3.4 22:50:42 75° ESE 22:50:53 77° E 22:55:20 10° N
Cosmos 1814 Rocket 4.0 22:45:39 10° N 22:50:58 70° ENE 22:51:48 59° SE
Milstar 3 Cent rocket 4.0 22:48:18 10° W 22:55:32 49° SSW 23:00:26 35° SSE
Cosmos 1763 Rocket 3.5 22:51:13 10° N 22:56:13 58° ENE 22:56:30 57° E
Cosmos 2263 Rocket 2.2 22:52:37 22° SSW 22:56:18 77° WNW 23:01:54 10° NNE
Cosmos 841 Rocket 3.9 22:51:31 10° N 22:56:31 44° ENE 22:56:41 44° ENE
Cosmos 332 Rocket 3.7 22:52:51 10° NNW 22:57:46 80° WSW 22:58:23 67° S
Cosmos 1725 Rocket 3.9 22:52:48 10° N 22:59:03 87° E 23:00:51 50° S
Cosmos 1300 3.1 22:57:58 10° NNW 23:01:19 61° NW 23:01:19 61° NW
DMSP B5D2-2 3.9 23:07:08 10° NNE 23:12:22 80° ESE 23:12:26 79° ESE
Meteor 1-27 4.2 23:07:26 10° N 23:13:11 67° E 23:13:25 66° E
SPOT 1/Viking Rocket 3.3 23:13:42 84° SSE 23:13:53 88° ENE 23:19:03 10° NNW
Cosmos 1328 Rocket 4.2 23:13:05 10° NNW 23:17:09 47° W 23:17:09 47° W
Cosmos 1151 Rocket 3.5 23:12:53 10° N 23:16:23 56° N 23:16:23 56° N
USA 234 4.0 23:16:34 10° NNE 23:22:52 53° NW 23:29:09 10° WSW
H-2A R/B 3.7 23:24:41 25° NE 23:24:41 25° NE 23:26:58 10° N
Cosmos 1515 Rocket 4.3 23:21:31 10° NNW 23:25:09 50° WNW 23:25:09 50° WNW
Cosmos 2058 3.9 23:26:59 46° NW 23:26:59 46° NW 23:30:25 10° N
ARGOS 4.0 23:28:10 38° SW 23:29:04 41° W 23:34:10 10° NNW
Cosmos 1844 Rocket 4.2 23:31:42 23° NE 23:31:42 23° NE 23:34:06 10° NE
CZ-4C R/B 2.8 23:31:21 42° NE 23:31:21 42° NE 23:35:08 10° NNE
RESURS DK-1 4.3 23:27:45 10° NW 23:30:33 23° W 23:30:33 23° W
Cosmos 1455 4.3 23:30:49 10° N 23:32:20 22° NNE 23:32:20 22° NNE
Sakura Rocket 4.4 23:36:59 10° W 23:43:40 53° SW 23:43:40 53° SW
Meteor 2-12 Rocket 4.4 23:41:37 10° N 23:47:38 72° W 23:47:39 72° W
Cosmos 2233 Rocket 4.2 23:42:15 10° NNW 23:48:17 58° W 23:48:44 57° WSW
Cosmos 540 Rocket 4.2 23:44:30 10° N 23:48:19 48° NNE 23:48:19 48° NNE
Cosmos 1943 3.7 23:44:24 10° NNW 23:49:30 52° W 23:49:30 52° W
CZ-4B R/B 4.4 23:46:12 10° NNE 23:49:41 42° NNE 23:49:41 42° NNE
